Flag for Germany Weather past 2 weeks in Amberg, Bavaria, Germany

Now
25 °F

Ice fog.


Feels Like: 25 °F
Forecast: 11 / 31 °F
Wind: No wind

Location: Hohenfels

Current Time: Dec 27, 2014 at 2:04:18 AM

Latest Report: Dec 27, 2014 at 12:58 AM


Visibility: 6 mi

Pressure: 30.25 "Hg

Humidity: 100%

Dew point: 25 °F

Location of AmbergLocation

Historic Weather in Amberg — Graph

°F

Amberg temperature yesterday

Maximum temperature yesterday: 37 °F (at 12:01 AM)
Minimum temperature yesterday: 22 °F (at 11:58 PM)
Average temperature yesterday: 32 °F

Past Weeks' High & Low Weather Summary

 TemperatureHumidityPressure
High52 °F (Dec 19, 1:58 PM)100% (Dec 14, 2:59 AM)30.51 "Hg (Dec 14, 2:59 AM)
Low22 °F (Dec 26, 11:58 PM)54% (Dec 13, 1:58 PM)29.74 "Hg (Dec 12, 5:58 PM)
Average41 °F85%30.12 "Hg
* Reported Dec 12 3:58 PM — Dec 27 12:58 AM, Amberg, Weather by CustomWeather, © 2014

Note: Actual official high and low records may vary slightly from our data, if they occured in-between our weather recording intervals... More about our weather records

Advertising

Amberg weather history for previous 24 hours

 ConditionsComfort  
Time TempWeatherWind HumidityBarometerVisibility
12:58 AM
Dec 27
25 °FIce fog.No wind100%30.25 "Hg6 mi
11:58 PM
Dec 26
22 °FPassing clouds.No wind94%30.30 "HgN/A
10:58 PM23 °FClear.No wind95%30.32 "HgN/A
9:58 PM24 °FClear.No wind95%30.34 "HgN/A
8:58 PM28 °FClear.2 mph86%30.34 "HgN/A
7:58 PM28 °FClear.3 mph93%30.36 "HgN/A
6:58 PM31 °FOvercast.5 mph87%30.36 "HgN/A
5:58 PM32 °FLight snow. Passing clouds.3 mph87%30.36 "HgN/A
5:04 PM32 °FLight snow. Ice fog.3 mph93%30.29 "Hg2 mi
5:00 PM32 °FLight snow. Ice fog.3 mph93%30.29 "Hg2 mi
3:58 PM30 °FScattered clouds.No wind100%30.37 "HgN/A
3:02 PM32 °FLight snow. Ice fog.No wind93%30.30 "Hg4 mi
2:58 PM32 °FLight snow. Ice fog.No wind93%30.37 "Hg4 mi
1:58 PM34 °FPassing clouds.3 mph75%30.36 "HgN/A
12:58 PM34 °FOvercast.6 mph74%30.38 "HgN/A
11:58 AM34 °FPartly sunny.10 mph75%30.38 "HgN/A
10:58 AM34 °FMostly cloudy.9 mph77%30.39 "HgN/A
9:58 AM34 °FOvercast.7 mph81%30.39 "HgN/A
8:58 AM33 °FOvercast.7 mph82%30.38 "HgN/A
7:58 AM33 °FMostly cloudy.8 mph82%30.37 "HgN/A
6:58 AM33 °FMostly cloudy.6 mph81%30.36 "HgN/A
5:58 AM33 °FPassing clouds.6 mph81%30.36 "HgN/A
4:58 AM34 °FPassing clouds.6 mph81%30.35 "HgN/A
3:58 AM34 °FOvercast.7 mph81%30.35 "HgN/A
2:58 AM34 °FPassing clouds.10 mph81%30.34 "HgN/A
Weather by CustomWeather, © 2014

See weather overviewHow to use our weather pages